Regional Weather Roundup
Issued by NWS

Home | Current Version | Previous Version | Graphics & Text | Print | Product List | Glossary On
Versions: 1 2 3 4 5 6 7 8 9 10 11 12 13 14 15 16 17 18 19 20 21 22 23 24 25 26 27 28 29 30 31 32 33 34 35 36 37 38 39 40 41 42 43 44 45 46 47 48 49 50
812
ASUS43 KMKX 232100
RWRWI

WISCONSIN REGIONAL WEATHER ROUNDUP
NATIONAL WEATHER SERVICE MILWAUKEE/SULLIVAN WI
300 PM CST FRI FEB 23 2018

NOTE: "FAIR" INDICATES FEW OR NO CLOUDS BELOW 12,000 FEET WITH NO
SIGNIFICANT WEATHER AND/OR OBSTRUCTIONS TO VISIBILITY.

WIZ001-002-006>008-014>016-023>028-232200-
NORTHWEST WISCONSIN

CITY           SKY/WX    TMP DP  RH WIND       PRES   REMARKS
SUPERIOR ARPT  CLOUDY    32  23  67 SW9       30.12S WCI  25
ASHLAND        CLOUDY    31  23  72 W13       30.11R WCI  21
HAYWARD        CLOUDY    30  23  75 VRB6      30.10S WCI  24
SIREN          PTSUNNY   32  21  64 W12       30.14S WCI  23
CUMBERLAND     CLOUDY    30  21  69 W15       30.13R WCI  19
RICE LAKE      CLOUDY    31  22  71 W13       30.16R WCI  21
CHETEK         CLOUDY    31  23  71 W8        30.14R WCI  24
LADYSMITH      PTSUNNY   31  23  71 W12G17    30.12S WCI  22
EAU CLAIRE     NOT AVBL
MENOMONIE      CLOUDY    31  22  69 W10       30.18R WCI  22
NEW RICHMOND   PTSUNNY   31  21  66 W10       30.17R WCI  23
OSCEOLA        FAIR      33  22  64 W10       30.19F WCI  25
$$

WIZ003>005-009-010-017-018-232200-
NORTH CENTRAL WISCONSIN

CITY           SKY/WX    TMP DP  RH WIND       PRES   REMARKS
MANITOWISH WTR CLOUDY    28  26  89 W10       30.04R WCI  19
ARBOR VITAE    CLOUDY    29  26  88 W10G16    30.03S WCI  20
WOODRUFF       CLOUDY    29  26  88 W10G16    30.03S WCI  20
RHINELANDER    CLOUDY    29  27  92 W18       30.04R WCI  16
EAGLE RIVER    CLOUDY    28  26  89 W12G22    30.03R WCI  18
LAND O LAKES   CLOUDY    29  25  84 W9G17     30.03R WCI  21
PHILLIPS       CLOUDY    29  24  82 W6        30.06S WCI  23
TOMAHAWK       CLOUDY    29  25  86 W10G17    30.06S WCI  19
MEDFORD        CLOUDY    28  24  85 W15G22    30.08S WCI  16
MERRILL        CLOUDY    30  26  85 W12G23    30.09R WCI  20
$$

WIZ029-030-035-036-043>047-232200-
CENTRAL WISCONSIN

CITY           SKY/WX    TMP DP  RH WIND       PRES   REMARKS
WAUSAU         CLOUDY    30  25  81 W13G24    30.08R WCI  20
MOSINEE        NOT AVBL
MARSHFIELD     CLOUDY    30  24  78 W14G23    30.11R WCI  19
STEVENS POINT  CLOUDY    30  25  82 W13G21    30.11R WCI  20
WAUPACA        CLOUDY    37  29  75 W15G21    30.11R WCI  27
WAUTOMA        CLOUDY    33  27  78 W16       30.15R WCI  23
WISC RAPIDS    CLOUDY    31  25  78 W10G24    30.15R WCI  22
CAMP DOUGLAS   CLOUDY    34  27  75 W12       30.17R WCI  25
$$

WIZ011>013-019>022-031-037>040-048>050-232200-
NORTHEAST WISCONSIN

CITY           SKY/WX    TMP DP  RH WIND       PRES   REMARKS
ANTIGO         CLOUDY    31  27  84 W20       30.04R WCI  19
SHAWANO        CLOUDY    37  29  74 W14G23    30.08R WCI  28
OCONTO         CLOUDY    37  31  78 W15       30.06R WCI  28
STURGEON BAY   CLOUDY    37  31  78 W12       30.06R WCI  29
GREEN BAY      CLOUDY    37  29  72 W16       30.09R WCI  28
MANITOWOC      CLOUDY    37  31  78 W15G24    30.10R WCI  28
APPLETON       CLOUDY    36  28  75 W17       30.09R WCI  25
CLINTONVILLE   CLOUDY    35  28  75 W15G22    30.09R WCI  25
OSHKOSH        CLOUDY    36  29  75 W10G21    30.12R WCI  28
$$

WIZ032>034-041-042-053>061-232200-
SOUTHWEST WISCONSIN

CITY           SKY/WX    TMP DP  RH WIND       PRES   REMARKS
LA CROSSE      FAIR      34  25  69 NW14      30.21R WCI  25
SPARTA         PTSUNNY   32  25  76 W12       30.19R WCI  23
VIROQUA        PTSUNNY   32  28  86 W12       30.17S WCI  23
BOSCOBEL       FAIR      38  25  59 W14G23    30.21R WCI  30
PRAIRIE DU CHI FAIR      35  24  65 W16       30.22S WCI  25
PLATTEVILLE    CLOUDY    34  30  86 W14       30.20S WCI  24
$$

WIZ056-057-062-063-064-067-068-232200-
SOUTH CENTRAL WISCONSIN

CITY           SKY/WX    TMP DP  RH WIND       PRES   REMARKS
REEDSBURG      CLOUDY    36  28  73 W13G20    30.16R WCI  28
BARABOO/DELLS  CLOUDY    36  29  75 W9        30.15R WCI  29
LONE ROCK      NOT AVBL
MINERAL POINT  CLOUDY    36  32  87 W18       30.17S WCI  25
MADISON        PTSUNNY   38  29  70 W9        30.16S WCI  31
MIDDLETON      CLOUDY    40  31  72 W13       30.15S WCI  32
WATERTOWN      CLOUDY    37  32  84 W10G20    30.14R WCI  29
MONROE         CLOUDY    36  32  87 W21       30.17R WCI  24
JANESVILLE     CLOUDY    39  32  75 W15G23    30.18R WCI  31
$$

WIZ051-052-058>065-066-070>072-232200-
SOUTHEAST WISCONSIN

CITY           SKY/WX    TMP DP  RH WIND       PRES   REMARKS
MILWAUKEE      CLOUDY    40  33  76 W14G22    30.15R WCI  32
WAUKESHA       CLOUDY    36  30  80 W15       30.15R WCI  26
MILWAUKEE/TIMM CLOUDY    37  30  75 W12       30.15R WCI  30
RACINE         CLOUDY    39  33  79 W12       30.18R WCI  32
BURLINGTON     CLOUDY    37  32  82 W10G18    30.17R WCI  30
KENOSHA        CLOUDY    39  32  76 W15       30.17R WCI  31
FOND DU LAC    CLOUDY    37  30  75 W12G22    30.12R WCI  29
SHEBOYGAN      CLOUDY    37  33  85 W13G22    30.11R WCI  29
WEST BEND      CLOUDY    36  34  93 W13G20    30.11R WCI  27
JUNEAU         CLOUDY    35  31  87 W12       30.14R WCI  27
$$

LSZ147-162-232200-
LAKE SUPERIOR

STATION/POSITION TIME  TEMP    WIND        PRES    WAVE
                       AIR SEA DIR/SP/G            HT/PER
                 (UTC) (F)     (DEG/KT/KT) (MB)    (FT/S)
DEVILS ISLAND    2000   30     240/ 19/ 24 1018.8R
SAXON HARBOR     2040   33     260/  6/  9 1018.6R
$$

LMZ867-665-643>646-232200-
LAKE MICHIGAN

STATION/POSITION TIME  TEMP    WIND        PRES    WAVE
                       AIR SEA DIR/SP/G            HT/PER
                 (UTC) (F)     (DEG/KT/KT) (MB)    (FT/S)
NORTHPORT PIER   2040   38                 1016.6R
KEWAUNEE LAKESHO 2030   38     260/  9/ 14 1017.3R
SHEBOYGAN LAKESH 2000   38     270/ 14/ 16 1019.5R
PORT WASHINGTON  2040   39     270/ 10/ 17 1021.0R
KENOSHA   LAKESH 2000   38     260/ 12/ 15 1021.0
$$

TC  - TEMPERATURE IN CELSIUS
VSB - VISIBILITY IN STATUTE MILES
WCI - WIND CHILL INDEX
HX  - HEAT INDEX





USA.gov is the U.S. government's official web portal to all federal, state and local government web resources and services.